Regional Weather Roundup
Issued by NWS

Home | Current Version | Previous Version | Text Only | Print | Product List | Glossary Off
Versions: 1 2 3 4 5 6 7 8 9 10 11 12 13 14 15 16 17 18 19 20 21 22 23 24 25 26 27 28 29 30 31 32 33 34 35 36 37 38 39 40 41 42 43 44 45 46 47 48 49 50

000
ASUS43 KBIS 212102
RWRND

NORTH DAKOTA REGIONAL WEATHER ROUNDUP
NATIONAL WEATHER SERVICE BISMARCK ND
400 PM CDT SAT OCT 21 2017

NOTE: "FAIR" INDICATES FEW OR NO CLOUDS BELOW 12,000 FEET WITH NO
SIGNIFICANT WEATHER AND/OR OBSTRUCTIONS TO VISIBILITY.


NDZ001>003-009>011-017-212200-
NORTHWEST NORTH DAKOTA

CITY           SKY/WX    TMP DP  RH WIND       PRES   REMARKS
WILLISTON      CLOUDY    51  33  50 NW23G36   29.67R
MINOT          CLOUDY    51  36  56 W29G39    29.56S
MINOT AFB      CLOUDY    50  37  60 W23G32    29.54R
$$

NDZ018>021-031>035-040>046-212200-
SOUTHWEST NORTH DAKOTA

CITY           SKY/WX    TMP DP  RH WIND       PRES   REMARKS
BISMARCK       CLOUDY    51  38  60 NW16G33   29.67R
DICKINSON      CLOUDY    50  33  52 W26G36    29.68R
GARRISON         N/A     49  36  61 NW28G38   29.61R
HETTINGER ARPT CLOUDY    53  30  41 NW32G41   29.75R
$$

NDZ004>008-012>016-024-026-027-054-212200-
NORTHEAST NORTH DAKOTA

CITY           SKY/WX    TMP DP  RH WIND       PRES   REMARKS
GRAND FORKS    LGT RAIN  61  46  57 W22G31    29.50R
GRND FRKS AFB  CLOUDY    57  44  60 W18G28    29.51R
DEVILS LAKE    LGT RAIN  51  42  71 W20       29.54R
$$

NDZ022-023-025-028>030-036>039-047>053-212200-
SOUTHEAST NORTH DAKOTA

CITY           SKY/WX    TMP DP  RH WIND       PRES   REMARKS
FARGO          CLOUDY    60  46  59 W20       29.55R
JAMESTOWN      LGT RAIN  49  43  80 W16G28    29.60R
$$




USA.gov is the U.S. government's official web portal to all federal, state and local government web resources and services.